Sarasota, FL

11:46 AM EDT on May 23, 2018 (GMT -0400)
Sarasota-bradenton

Weather History for KSRQ - October, 2010

Change the Weather History Date:

Wednesday, October 13, 2010

  Actual Average Record
Temperature  
Mean Temperature 77 °F 77 °F  
Max Temperature 87 °F 86 °F 93 °F (1965)
Min Temperature 67 °F 69 °F 52 °F (1980)
Degree Days  
Heating Degree Days 0 0  
Month to date heating degree days 0 0  
Since 1 July heating degree days 0 0  
Cooling Degree Days 12 12  
Month to date cooling degree days 118 176  
Year to date cooling degree days 3055 2965  
Growing Degree Days 27 (Base 50)    
Moisture  
Dew Point 64 °F    
Average Humidity 68    
Maximum Humidity 84    
Minimum Humidity 45    
Precipitation  
Precipitation 0.00 in 0.11 in 1.15 in (1965)
Month to date precipitation T 1.59  
Year to date precipitation 40.59 47.02  
Sea Level Pressure  
Sea Level Pressure 29.98 in    
Wind  
Wind Speed 5 mph (North)    
Max Wind Speed 14 mph    
Max Gust Speed 22 mph    
Visibility 10 miles    
Events      
T = Trace of Precipitation, MM = Missing Value Source: NWS Daily Summary

Daily Weather History Graph

Daily Weather History Graph

Search for Another Location

Airport or City:

Astronomy

Oct. 13, 2010 Rise Set
Actual Time 7:29 AM EDT 7:03 PM EDT
Civil Twilight 7:05 AM EDT 7:26 PM EDT
Nautical Twilight 6:38 AM EDT 7:53 PM EDT
Astronomical Twilight 6:11 AM EDT 8:20 PM EDT
Moon 1:23 PM EDT (10/13) No Moon Set
Length of Visible Light 12h 21m
Length of Day
11h 34m
Waxing Crescent, 38% of the Moon is Illuminated
Oct 13
Waxing Crescent
Oct 14
First Quarter
Oct 22
Full
Oct 30
Last Quarter
Nov 6
New

Hourly Weather History & Observations

Time (EDT) Temp. Heat Index Dew Point Humidity Pressure Visibility Wind Dir Wind Speed Gust Speed Precip Events Conditions
12:53 AM 73.0 °F - 64.9 °F 76% 30.00 in 10.0 mi Calm Calm - N/A   Mostly Cloudy
1:53 AM 70.0 °F - 64.9 °F 84% 29.99 in 10.0 mi Calm Calm - N/A   Partly Cloudy
2:53 AM 70.0 °F - 64.9 °F 84% 29.97 in 10.0 mi NE 3.5 mph - N/A   Clear
3:53 AM 69.1 °F - 64.0 °F 84% 29.96 in 10.0 mi Calm Calm - N/A   Clear
4:53 AM 68.0 °F - 63.0 °F 84% 29.96 in 10.0 mi Calm Calm - N/A   Clear
5:53 AM 69.1 °F - 63.0 °F 81% 29.97 in 10.0 mi NNE 3.5 mph - N/A   Clear
6:53 AM 70.0 °F - 64.0 °F 81% 29.99 in 10.0 mi NNE 4.6 mph - N/A   Overcast
7:53 AM 70.0 °F - 64.0 °F 81% 29.99 in 10.0 mi NE 3.5 mph - N/A   Clear
8:53 AM 73.0 °F - 66.0 °F 79% 30.01 in 10.0 mi ENE 4.6 mph - N/A   Clear
9:53 AM 78.1 °F - 66.0 °F 66% 30.01 in 10.0 mi NE 8.1 mph - N/A   Clear
10:53 AM 81.0 °F 82.7 °F 64.9 °F 58% 30.02 in 10.0 mi ENE 6.9 mph - N/A   Clear
11:53 AM 84.0 °F 85.8 °F 64.9 °F 53% 30.02 in 10.0 mi NNE 8.1 mph - N/A   Clear
12:53 PM 84.9 °F 85.4 °F 62.1 °F 46% 30.00 in 10.0 mi Variable 3.5 mph - N/A   Partly Cloudy
1:53 PM 86.0 °F 86.3 °F 62.1 °F 44% 29.98 in 10.0 mi NNE 3.5 mph - N/A   Clear
2:53 PM 86.0 °F 86.3 °F 62.1 °F 44% 29.95 in 10.0 mi NNE 8.1 mph - N/A   Partly Cloudy
3:53 PM 84.0 °F 85.4 °F 64.0 °F 51% 29.94 in 10.0 mi WNW 12.7 mph - N/A   Clear
4:53 PM 82.0 °F 83.1 °F 63.0 °F 52% 29.95 in 10.0 mi West 10.4 mph - N/A   Clear
5:53 PM 82.0 °F 82.4 °F 60.1 °F 47% 29.95 in 10.0 mi North - - N/A   Clear
6:53 PM 77.0 °F - 62.1 °F 60% 29.96 in 10.0 mi NW 9.2 mph - N/A   Clear
7:53 PM 73.9 °F - 64.0 °F 71% 29.97 in 10.0 mi NNW 6.9 mph - N/A   Clear
8:53 PM 73.9 °F - 64.0 °F 71% 29.98 in 10.0 mi NNW 5.8 mph - N/A   Clear
9:53 PM 73.0 °F - 64.9 °F 76% 29.99 in 10.0 mi NNW 4.6 mph - N/A   Clear
10:53 PM 71.6 °F - 66.2 °F 83% 29.99 in 10.0 mi Calm Calm - N/A   Clear
11:53 PM 71.1 °F - 66.0 °F 84% 29.98 in 10.0 mi Calm Calm - N/A   Clear